Hourly Data Report for October 31, 2013

All times are specified in Local Standard Time (LST). Add 1 hour to adjust for Daylight Saving Time where and when it is observed.

PENTICTON A
BRITISH COLUMBIA

49°27'45.000" N
119°36'08.000" W
344.40 m
1126146
71889
YYF

Download Data

Hourly Data (October 2013)
Hourly Data Report for October 31, 2013
Temp Definition
°C
Dew Point Temp Definition
°C
Rel Hum Definition
%
Wind Dir Definition
10's deg

Wind Spd Definition
km/h
Visibility Definition
km
Stn Press Definition
kPa
Hmdx Definition


Wind Chill Definition


Weather Definition


TIME
00:00 Legend Double Dagger 7.9 -0.8 54 15 23 24.1 97.53     LegendNANA
01:00 Legend Double Dagger 7.8 -1.7 51 15 22 24.1 97.55     Cloudy
02:00 Legend Double Dagger 7.7 -1.5 52 17 21 24.1 97.60     LegendNANA
03:00 Legend Double Dagger 7.5 -2.2 50 19 35 24.1 97.53     LegendNANA
04:00 Legend Double Dagger 7.2 -1.7 53 18 34 24.1 97.48     Mostly Cloudy
05:00 Legend Double Dagger 6.9 -2.3 52 17 37 24.1 97.50     LegendNANA
06:00 Legend Double Dagger 6.7 -1.7 55 17 30 24.1 97.51     LegendNANA
07:00 Legend Double Dagger 6.2 -1.4 58 17 24 24.1 97.55     Mainly Clear
08:00 Legend Double Dagger 6.7 -0.5 60 15 23 24.1 97.59     LegendNANA
09:00 Legend Double Dagger 8.0 -1.2 52 17 25 24.1 97.65     LegendNANA
10:00 Legend Double Dagger 9.2 -0.9 49 16 22 24.1 97.67     Mainly Clear
11:00 Legend Double Dagger 10.6 -0.2 47 17 24 24.1 97.63     LegendNANA
12:00 Legend Double Dagger 11.9 0.1 44 17 20 24.1 97.62     LegendNANA
13:00 Legend Double Dagger 12.8 -0.1 41 17 18 24.1 97.60     Mainly Clear
14:00 Legend Double Dagger 12.4 1.5 47 17 13 24.1 97.60     LegendNANA
15:00 Legend Double Dagger 12.9 1.3 45 17 21 24.1 97.62     LegendNANA
16:00 Legend Double Dagger 12.3 2.0 49 18 14 24.1 97.64     Mostly Cloudy
17:00 Legend Double Dagger 11.6 1.3 49 17 13 24.1 97.67     LegendNANA
18:00 Legend Double Dagger 8.9 2.0 62 32 8 24.1 97.76     LegendNANA
19:00 Legend Double Dagger 6.3 1.6 72 6 4 24.1 97.84     Mainly Clear
20:00 Legend Double Dagger 7.3 2.2 70 13 5 24.1 97.89     LegendNANA
21:00 Legend Double Dagger 5.9 2.0 76 2 1 24.1 97.92     LegendNANA
22:00 Legend Double Dagger 4.8 0.8 75 12 4 24.1 98.00     Mostly Cloudy
23:00 Legend Double Dagger 2.7 -0.2 81 3 5 24.1 98.05     LegendNANA

Notes on Data Quality.

Legend

  • E = Estimated
  • M = Missing
  • NA = Not Available
  • ‡ = Partner data that is not subject to review by the National Climate Archives
Date modified: